OSCAR 7 1 7530U 74089B 25354.30518720 -.00000039 00000-0 45671-4 0 9998 2 7530 101.9963 0.6523 0012388 112.3654 260.4241 12.53694398338100 OSCAR 11 (UOSAT 2) 1 14781U 84021B 25354.44830617 .00001221 00000-0 13174-3 0 9993 2 14781 97.7822 317.3573 0009084 60.6972 299.5153 14.90165171230507 OSCAR 19 (LUSAT) 1 20442U 90005G 25354.29104190 .00000103 00000-0 53681-4 0 9992 2 20442 98.8956 6.0705 0011805 16.0655 344.0900 14.34047592876757 EYESAT A 1 22825U 93061C 25354.41088818 .00000094 00000-0 53020-4 0 9992 2 22825 98.7136 56.6961 0007321 263.8924 96.1425 14.30879353681437 ITAMSAT 1 22826U 93061D 25354.44323713 .00000111 00000-0 58960-4 0 9990 2 22826 98.7084 56.6285 0007930 245.4449 114.5907 14.31300413681744 RADIO ROSTO 1 23439U 94085A 25354.58485412 .00000010 00000-0 15007-2 0 9999 2 23439 64.8155 232.0637 0150015 37.0298 324.0868 11.27583308275762 JAS 2 1 24278U 96046B 25354.38852566 -.00000027 00000-0 87439-5 0 9996 2 24278 98.5458 222.4972 0349495 200.1071 158.6010 13.53262929448983 TECHSAT 1B 1 25397U 98043D 25354.43377323 .00000043 00000-0 38955-4 0 9992 2 25397 98.9927 337.8236 0001817 45.1829 314.9496 14.24379087425888 ISS (ZARYA) 1 25544U 98067A 25354.27981747 .00007139 00000-0 13442-3 0 9991 2 25544 51.6320 105.1395 0003193 275.4219 84.6406 15.49680920544026 PCSAT 1 26931U 01043C 25354.28002451 .00000126 00000-0 78015-4 0 9994 2 26931 67.0515 346.9785 0007420 269.5107 90.5145 14.31858766264838 SAUDISAT 1C 1 27607U 02058C 25354.36114807 .00001456 00000-0 19159-3 0 9990 2 27607 64.5532 322.0422 0072562 295.1454 64.2136 14.82420220237948 CUTE-1 1 27844U 03031E 25354.24784514 .00000277 00000-0 13915-3 0 9994 2 27844 98.6762 0.0540 0009386 351.8021 8.3003 14.24185337166207 CUBESAT XI 4 1 27848U 03031J 25354.28829934 .00000225 00000-0 11829-3 0 9993 2 27848 98.6791 359.9499 0009615 9.8090 350.3275 14.23492492165924 MOZHAYETS 4 1 27939U 03042A 25354.52799144 .00000713 00000-0 11933-3 0 9990 2 27939 98.3358 168.9347 0012345 112.8025 339.8464 14.72989314189249 CUBESAT XI 5 1 28895U 05043F 25354.39523294 .00001241 00000-0 20608-3 0 9997 2 28895 98.2729 141.6027 0015147 55.4537 304.8096 14.71925921 75440 CUTE-1.7+APD 2 1 32785U 08021C 25351.68477250 .00005656 00000-0 38073-3 0 9997 2 32785 97.8081 324.8433 0007829 290.5969 69.4418 15.07103756957832 SEEDS 1 32791U 08021J 25354.44742117 .00012252 00000-0 48644-3 0 9993 2 32791 97.7443 339.8589 0002236 171.9570 188.1704 15.25493197959970 YUBELEINY 1 32953U 08025A 25354.51699582 -.00000094 00000-0 -74531-3 0 9999 2 32953 82.5029 106.5863 0018729 343.8277 16.2203 12.43171637797495 KKS-1 (KISEKI) 1 33499U 09002H 25354.43672556 .00001210 00000-0 15764-3 0 9996 2 33499 98.1184 269.1454 0008652 141.0624 219.1214 14.82458708909703 SWISSCUBE 1 35932U 09051B 25354.23096661 .00000951 00000-0 19964-3 0 9996 2 35932 98.4147 253.9460 0007962 54.4223 305.7718 14.61977298863002 BEESAT 1 35933U 09051C 25354.28828919 .00000795 00000-0 17097-3 0 9992 2 35933 98.4077 254.0013 0006504 67.0346 293.1540 14.61294785863059 ITUPSAT 1 1 35935U 09051E 25354.26132802 .00000725 00000-0 16093-3 0 9999 2 35935 98.4167 253.3456 0008754 75.0140 285.2028 14.60048507862627 XIWANG-1 (HOPE-1) 1 36122U 09072B 25354.49358847 -.00000493 00000-0 -11755-2 0 9998 2 36122 100.3780 306.3881 0006978 284.0918 75.9419 13.16431005769490 TISAT 1 1 36799U 10035E 25354.26439118 .00013124 00000-0 54929-3 0 9999 2 36799 98.0614 281.2086 0004074 116.8506 243.3146 15.23705665840389 JUGNU 1 37839U 11058B 25354.17052898 .00000413 00000-0 76002-4 0 9991 2 37839 19.9622 315.9655 0018384 259.0452 208.1635 14.13699442733669 SRMSAT 1 37841U 11058D 25354.52649404 .00000388 00000-0 66766-4 0 9995 2 37841 19.9724 60.8238 0011946 39.0399 89.0233 14.11513957732541 HORYU 2 1 38340U 12025D 25353.84812236 .00002490 00000-0 26741-3 0 9998 2 38340 98.1961 114.9195 0009155 53.4774 306.7284 14.89522476722014 STRAND 1 1 39090U 13009E 25354.46807760 .00000257 00000-0 10100-3 0 9990 2 39090 98.3821 174.1614 0009499 50.1118 310.0903 14.37011112671398 CUBEBUG 1 1 39153U 13018D 25354.38791610 .00002259 00000-0 20829-3 0 9990 2 39153 98.1428 141.8113 0012520 24.4396 335.7415 14.95720458684328 ZACUBE 1 39417U 13066B 25351.39749824 .00003280 00000-0 27002-3 0 9999 2 39417 97.8056 307.9496 0042001 132.1904 228.2897 14.99124350653477 TRITON 1 1 39427U 13066M 25354.54853957 .00001306 00000-0 16500-3 0 9991 2 39427 97.8330 263.4792 0093509 95.9492 265.2387 14.80524110647640 GOMX 1 1 39430U 13066Q 25354.53254793 .00001781 00000-0 27797-3 0 9994 2 39430 97.6583 201.1705 0129179 291.4041 67.3425 14.68620049643689 HUMSAT D 1 39433U 13066T 25354.47477047 .00076737 00000-0 97068-3 0 9990 2 39433 97.4996 356.4689 0009445 116.5504 243.6721 15.59213830658992 CUBEBUG 2 1 39440U 13066AA 25351.56788106 .00003439 00000-0 33426-3 0 9993 2 39440 97.8708 295.2332 0058016 269.4523 90.0047 14.92015584649893 FUNCUBE 1 1 39444U 13066AE 25354.42870588 .00005567 00000-0 37844-3 0 9993 2 39444 97.8078 317.8018 0041175 90.8082 269.7863 15.06072431652720 UWE-3 1 39446U 13066AG 25353.84861621 .00002262 00000-0 20652-3 0 9996 2 39446 97.8486 304.2036 0050059 195.5950 164.3731 14.95156504650760 UNISAT 6 1 40012U 14033C 25354.41840829 .00002272 00000-0 25618-3 0 9991 2 40012 97.7620 145.7008 0045182 298.3183 61.3479 14.86847848619586 DUCHIFAT 1 1 40021U 14033M 25354.37331334 .00027395 00000-0 66149-3 0 9999 2 40021 98.0771 26.9874 0006793 10.2941 349.8442 15.41143531628029 QB50P1 1 40025U 14033R 25354.41593736 .00006599 00000-0 36105-3 0 9996 2 40025 98.0962 348.4988 0010987 112.1426 248.0971 15.14583375625931 OBJECT G 1 40905U 15049G 25354.52391032 .00019187 00000-0 30067-3 0 9996 2 40905 97.4836 24.3587 0007471 143.1478 217.0289 15.53732176568595 LILACSAT 2 1 40908U 15049K 25354.50906456 .00010923 00000-0 23379-3 0 9996 2 40908 97.4898 20.1311 0008082 168.1845 191.9595 15.44942166568108 LQSAT 1 40958U 15057A 25354.51551131 .00000860 00000-0 13021-3 0 9999 2 40958 97.6599 351.8706 0018166 129.0182 231.2649 14.76461838548943 CHUBUSAT 2 1 41338U 16012B 25354.44206512 .00004445 00000-0 20504-3 0 9993 2 41338 30.9992 52.4574 0009067 56.2645 303.8859 15.18474896541201 CHUBUSAT 3 1 41339U 16012C 25354.51319383 .00004306 00000-0 20980-3 0 9997 2 41339 31.0065 57.6500 0009206 50.3928 309.7523 15.16565688541037 PRATHAM 1 41783U 16059A 25354.47754617 .00000613 00000-0 11727-3 0 9995 2 41783 97.8268 354.2914 0032790 68.8061 291.6642 14.66845627493312 ALSAT 1N 1 41789U 16059G 25354.46608900 .00000993 00000-0 17683-3 0 9991 2 41789 97.8013 0.8295 0027190 41.6249 318.7020 14.68886936493767